Flag for Russia Weather past 2 weeks in Yakutsk, Russia

Now
36 °F

Overcast.


Feels Like: 33 °F
Forecast: 33 / 46 °F
Wind: 3 mph from Northwest

Location: Jakutsk


UV Index: 0 (Low)

Visibility: N/A


Pressure: 29.45 "Hg

Humidity: 93%

Dew point: 34 °F

Location of YakutskLocation

Historic Weather in Yakutsk

°F

Yakutsk temperature yesterday

Maximum temperature yesterday: 52 °F (at 4:00 PM)
Minimum temperature yesterday: 36 °F (at 1:00 AM)
Average temperature yesterday: 41 °F

Past Weeks' High & Low Weather Summary

 TemperatureHumidityPressure
High55 °F (Apr 12, 4:00 PM)100% (Apr 22, 5:00 AM)30.12 "Hg (Apr 22, 5:00 AM)
Low9 °F (Apr 10, 5:00 AM)13% (Apr 19, 5:00 PM)29.15 "Hg (Apr 22, 11:00 PM)
Average35 °F58%29.82 "Hg
* Reported Apr 9 6:00 AM — Apr 24 6:30 AM, Yakutsk, Weather by CustomWeather, © 2014

Note: Actual official high and low records may vary slightly from our data, if they occured in-between our weather recording intervals... More about our weather records

Advertising

Historic Weather Conditions — Data for Previous 24 hours

 ConditionsComfort  
Time TempWeatherWind HumidityBarometerVisibility
6:30 AM
Apr 24
36 °FMostly cloudy.3 mph93%29.45 "HgN/A
6:00 AM36 °FMostly cloudy.3 mph93%29.45 "HgN/A
5:30 AM36 °FMostly cloudy.1 mph93%29.42 "HgN/A
5:00 AM36 °FMostly cloudy.3 mph93%29.42 "HgN/A
4:30 AM36 °FMostly cloudy.3 mph93%29.42 "HgN/A
4:00 AM36 °FOvercast.3 mph93%29.45 "HgN/A
3:30 AM37 °FOvercast.1 mph87%29.45 "HgN/A
3:00 AM36 °FOvercast.3 mph93%29.47 "HgN/A
2:30 AM37 °FOvercast.3 mph87%29.45 "HgN/A
2:00 AM37 °FOvercast.3 mph87%29.47 "HgN/A
1:30 AM37 °FOvercast.6 mph93%29.47 "HgN/A
1:00 AM37 °FOvercast.3 mph87%29.47 "HgN/A
12:30 AM37 °FMostly cloudy.1 mph93%29.47 "HgN/A
12:00 AM37 °FSprinkles. Mostly cloudy.3 mph93%29.50 "HgN/A
11:30 PM
Apr 23
37 °FSprinkles. Mostly cloudy.3 mph93%29.50 "HgN/A
11:00 PM39 °FSprinkles. Mostly cloudy.6 mph87%29.50 "HgN/A
10:30 PM39 °FSprinkles. Mostly cloudy.6 mph81%29.50 "HgN/A
10:00 PM41 °FSprinkles. Mostly cloudy.10 mph70%29.50 "HgN/A
9:30 PM43 °FOvercast.6 mph61%29.50 "HgN/A
9:00 PM43 °FOvercast.8 mph61%29.50 "HgN/A
8:30 PM43 °FOvercast.8 mph57%29.47 "HgN/A
8:00 PM46 °FOvercast.6 mph43%29.47 "HgN/A
7:30 PM46 °FOvercast.3 mph43%29.47 "HgN/A
7:00 PM46 °FOvercast.6 mph43%29.47 "HgN/A
6:30 PM48 °FSunny.8 mph37%29.47 "Hg10 mi
6:00 PM48 °FMostly cloudy.8 mph43%29.47 "HgN/A
5:30 PM48 °FCloudy.8 mph43%29.47 "HgN/A
5:00 PM48 °FCloudy.8 mph43%29.47 "HgN/A
4:30 PM48 °FMore clouds than sun.8 mph46%29.45 "HgN/A
4:00 PM52 °FMore clouds than sun.6 mph35%29.45 "HgN/A
3:30 PM48 °FMostly cloudy.3 mph43%29.45 "HgN/A
3:00 PM48 °FMostly cloudy.8 mph43%29.45 "HgN/A
2:30 PM48 °FMostly cloudy.8 mph46%29.45 "HgN/A
2:00 PM48 °FMostly cloudy.8 mph46%29.45 "HgN/A
1:30 PM46 °FMostly cloudy.6 mph53%29.45 "HgN/A
12:30 PM43 °FPartly sunny.10 mph66%29.45 "HgN/A
12:00 PM43 °FPartly sunny.13 mph66%29.45 "HgN/A
11:30 AM43 °FPartly sunny.8 mph66%29.45 "HgN/A
11:00 AM41 °FPartly sunny.10 mph70%29.42 "HgN/A
10:30 AM39 °FOvercast.13 mph75%29.42 "HgN/A
10:00 AM39 °FPartly sunny.15 mph75%29.39 "HgN/A
9:30 AM39 °FPartly sunny.15 mph75%29.36 "HgN/A
9:00 AM37 °FCloudy.15 mph81%29.36 "HgN/A
8:30 AM37 °FSprinkles. Cloudy.13 mph87%29.33 "HgN/A
8:00 AM37 °FPartly sunny.13 mph87%29.33 "HgN/A
7:30 AM37 °FPartly sunny.13 mph87%29.30 "HgN/A
7:00 AM37 °FBroken clouds.17 mph81%29.27 "HgN/A
Weather by CustomWeather, © 2014

See weather overview